EW7837 Weather Reports


time (UTC)temp
C
wind
direction
speed
KPH
gust
KPH
rain 1hr
cm
rain 24hr
cm
rain mn
cm
humidity
%
barometer
mb
20260902234601 26 259 0.0 0.0 0.00 0.00 0.00 63 1011.3
20260902233057 26 270 0.0 0.0 0.00 0.00 0.00 63 1011.4
20260902231550 26 246 0.0 0.0 0.00 0.00 0.00 64 1011.1
20260902230051 25 232 0.0 0.0 0.00 0.00 0.00 64 1011.2
20260902224600 26 255 0.0 0.0 0.00 0.00 0.00 65 1011.4
20260902223019 26 262 0.0 0.0 0.00 0.00 0.00 65 1011.6
20260902221523 25 244 0.0 0.0 0.00 0.00 0.00 66 1011.7
20260902220016 25 221 0.0 0.0 0.00 0.00 0.00 67 1012.1
20260902214525 25 262 0.0 0.0 0.00 0.00 0.00 66 1012.1
20260902213024 25 265 0.0 0.0 0.00 0.00 0.00 67 1012.1
20260902211514 25 250 0.0 0.0 0.00 0.00 0.00 68 1011.9
20260902210017 25 258 0.0 0.0 0.00 0.00 0.00 68 1011.9
20260902204512 25 215 0.0 0.0 0.00 0.00 0.00 68 1011.9
20260902203012 25 252 0.0 0.0 0.00 0.00 0.00 68 1012.0
20260902201516 25 269 0.0 0.0 0.00 0.00 0.00 67 1012.3
20260902200010 25 225 0.0 0.0 0.00 0.00 0.00 67 1012.4
20260902194506 26 265 0.0 0.0 0.00 0.00 0.00 67 1012.6
20260902193002 26 251 0.0 0.0 0.00 0.00 0.00 65 1012.4
20260902191559 26 246 0.0 0.0 0.00 0.00 0.00 68 1012.6
20260902190033 26 245 0.0 0.0 0.00 0.00 0.00 68 1012.7
20260902184537 26 252 0.0 0.0 0.00 0.00 0.00 68 1013.2
20260902183110 26 255 0.0 0.0 0.00 0.00 0.00 68 1013.1
20260902181554 26 262 0.0 0.0 0.00 0.00 0.00 68 1013.2
20260902180018 26 256 0.0 0.0 0.00 0.00 0.00 68 1012.8
20260902174513 26 264 0.0 0.0 0.00 0.00 0.00 69 1013.1
20260902173006 26 267 0.0 0.0 0.00 0.00 0.00 68 1013.1
20260902171503 25 246 0.0 0.0 0.00 0.00 0.00 66 1013.1
20260902170059 25 246 0.0 0.0 0.00 0.00 0.00 69 1012.6
20260902164554 24 246 0.0 0.0 0.00 0.00 0.00 71 1012.7
20260902163101 24 246 0.0 0.0 0.00 0.00 0.00 73 1013.1
20260902161544 23 246 0.0 0.0 0.00 0.00 0.00 77 1013.1
20260902160041 22 246 0.0 0.0 0.00 0.00 0.00 80 1013.1
20260902154537 22 246 0.0 0.0 0.00 0.00 0.00 82 1012.7
20260902153031 21 246 0.0 0.0 0.00 0.00 0.00 84 1013.1
20260902151527 20 246 0.0 0.0 0.00 0.00 0.00 87 1013.1
20260902150023 19 246 0.0 0.0 0.00 0.00 0.00 90 1013.1
20260902144521 18 246 0.0 0.0 0.00 0.00 0.00 92 1012.7
20260902143051 17 246 0.0 0.0 0.00 0.00 0.00 92 1012.7
20260902141547 17 246 0.0 0.0 0.00 0.00 0.00 91 1013.2
20260902140014 16 246 0.0 0.0 0.00 0.00 0.00 91 1012.9
20260902134513 16 246 0.0 0.0 0.00 0.00 0.00 90 1012.7
20260902133009 16 246 0.0 0.0 0.00 0.00 0.00 90 1012.1
20260902131509 16 246 0.0 0.0 0.00 0.00 0.00 90 1012.2
20260902130004 16 246 0.0 0.0 0.00 0.00 0.00 90 1012.2
20260902124504 16 246 0.0 0.0 0.00 0.00 0.00 90 1012.1
20260902123139 16 246 0.0 0.0 0.00 0.00 0.00 89 1012.1
20260902121601 17 246 0.0 0.0 0.00 0.00 0.00 89 1011.7
20260902120108 17 246 0.0 0.0 0.00 0.00 0.00 88 1012.1
20260902114556 17 246 0.0 0.0 0.00 0.00 0.00 88 1012.1
20260902113053 17 246 0.0 0.0 0.00 0.00 0.00 88 1012.2
20260902111535 18 246 0.0 0.0 0.00 0.00 0.00 88 1012.2
20260902110022 18 246 0.0 0.0 0.00 0.00 0.00 88 1012.1
20260902104520 18 246 0.0 0.0 0.00 0.00 0.00 87 1012.1
20260902103017 18 246 0.0 0.0 0.00 0.00 0.00 87 1012.6
20260902101516 18 246 0.0 0.0 0.00 0.00 0.00 86 1012.6
20260902100013 18 246 0.0 0.0 0.00 0.00 0.00 86 1012.6
20260902094511 18 246 0.0 0.0 0.00 0.00 0.00 86 1012.3
20260902093011 18 246 0.0 0.0 0.00 0.00 0.00 86 1012.4
20260902091510 19 246 0.0 0.0 0.00 0.00 0.00 86 1012.8
20260902090010 19 246 0.0 0.0 0.00 0.00 0.00 86 1012.9
20260902084505 19 246 0.0 0.0 0.00 0.00 0.00 86 1013.0
20260902083110 19 246 0.0 0.0 0.00 0.00 0.00 86 1013.0
20260902081552 19 246 0.0 0.0 0.00 0.00 0.00 86 1012.7
20260902080002 19 246 0.0 0.0 0.00 0.00 0.00 86 1012.6
20260902074645 18 246 0.0 0.0 0.00 0.00 0.00 86 1013.0
20260902073031 18 246 0.0 0.0 0.00 0.00 0.00 87 1012.8
20260902071602 19 246 0.0 0.0 0.00 0.00 0.00 86 1012.6
20260902070100 18 246 0.0 0.0 0.00 0.00 0.00 87 1012.6
20260902064529 18 246 0.0 0.0 0.00 0.00 0.00 87 1012.2
20260902063039 18 246 0.0 0.0 0.00 0.00 0.00 86 1012.2
20260902061524 18 246 0.0 0.0 0.00 0.00 0.00 85 1012.2
20260902060022 19 246 0.0 0.0 0.00 0.00 0.00 85 1012.1
20260902054525 19 246 0.0 0.0 0.00 0.00 0.00 84 1012.3
20260902053018 20 246 0.0 0.0 0.00 0.00 0.00 83 1012.5
20260902051513 20 246 0.0 0.0 0.00 0.00 0.00 82 1012.2
20260902050033 20 246 0.0 0.0 0.00 0.00 0.00 81 1012.0
20260902044508 20 246 0.0 0.0 0.00 0.00 0.00 80 1011.8
20260902043015 21 246 0.0 0.0 0.00 0.00 0.00 79 1011.6
20260902041600 21 246 0.0 0.0 0.00 0.00 0.00 79 1011.5
20260902040058 21 246 0.0 0.0 0.00 0.00 0.00 79 1011.1
20260902034600 22 246 0.0 0.0 0.00 0.00 0.00 79 1010.9
20260902033054 22 246 0.0 0.0 0.00 0.00 0.00 78 1010.6
20260902031550 22 246 0.0 0.0 0.00 0.00 0.00 77 1010.5
20260902030047 22 246 0.0 0.0 0.00 0.00 0.00 77 1010.5
20260902024555 22 246 0.0 0.0 0.00 0.00 0.00 76 1010.4
20260902023047 23 246 0.0 0.0 0.00 0.00 0.00 75 1010.3
20260902021555 23 246 0.0 0.0 0.00 0.00 0.00 72 1010.2
20260902020047 24 246 0.0 0.0 0.00 0.00 0.00 71 1010.2
20260902014544 25 246 0.0 0.0 0.00 0.00 0.00 69 1010.2
20260902013044 26 246 0.0 0.0 0.00 0.00 0.00 67 1010.1
20260902011541 26 246 0.0 0.0 0.00 0.00 0.00 67 1010.2
20260902010040 26 247 0.0 0.0 0.00 0.00 0.00 67 1010.2
20260902004539 26 252 0.0 0.0 0.00 0.00 0.00 67 1010.3
20260902003040 26 257 0.0 0.0 0.00 0.00 0.00 66 1010.3
20260902001537 27 256 0.0 0.0 0.00 0.00 0.00 66 1010.4
20260902000038 27 255 0.0 0.0 0.00 0.00 0.00 66 1010.5